Temperature
19 19 18 18 21 23 23 23 23 23 23 22 22 23 23 23 23 21 18 18 17 17 17 18 18 18 18 18 18 18 18 18 18 18 18 18 18 18 18 18 18 18 18 18 18 18 18 18 18
19 19 18 20 23 23 23 23 23 23 22 22 22 22 23 22 20 19 18 17 17 17 17 17 18 18 18 18 18 18 18 18 18 18 18 18 17 17 17 17 17 17 17 18 17 17 18 18 18
19 18 20 22 23 24 23 23 23 23 22 22 22 22 22 21 19 19 18 17 17 17 17 17 18 18 18 18 18 18 18 17 17 17 17 17 17 17 17 17 17 17 17 17 17 17 17 17 17
18 19 21 23 23 24 24 24 23 23 22 22 22 22 21 19 19 18 18 17 17 17 17 17 18 17 17 17 17 17 17 17 17 17 17 17 17 17 17 17 17 17 17 17 17 17 17 17 17
19 21 22 23 24 24 24 24 23 24 23 22 22 22 20 18 18 18 18 17 17 17 17 17 17 17 17 17 17 17 17 17 17 17 17 17 17 16 17 17 17 17 17 17 17 17 17 17 17
20 22 23 23 24 24 24 23 23 24 23 23 23 22 20 18 18 18 17 17 17 17 17 17 17 17 17 17 17 17 17 17 16 16 16 16 16 16 16 16 16 16 16 16 16 17 17 17 17
21 22 23 24 23 23 24 23 24 24 24 23 22 22 20 19 18 18 17 17 17 17 17 17 17 17 17 17 17 17 16 16 16 16 16 16 16 16 16 16 16 16 16 16 16 16 16 17 17
20 23 23 23 23 23 23 23 23 23 23 22 22 23 21 19 18 18 17 17 17 17 17 17 17 16 16 16 16 16 16 16 16 16 16 16 16 15 15 15 15 15 15 16 16 16 16 16 17
19 22 23 23 23 23 23 23 22 22 22 22 21 21 20 19 18 18 18 18 17 17 17 17 17 17 16 16 16 16 16 16 16 16 16 15 15 15 15 15 15 15 15 15 15 15 16 16 16
21 22 23 23 23 23 23 23 22 23 23 22 21 20 19 19 18 18 18 18 18 18 17 17 17 17 16 16 16 16 16 15 15 15 15 15 15 15 15 15 15 15 15 15 15 15 15 16 16
22 22 22 22 22 22 22 22 22 23 23 23 22 20 19 19 19 19 19 19 18 18 17 17 17 17 16 16 16 16 16 15 15 15 15 15 15 15 15 15 15 14 14 15 14 15 15 15 15
22 22 22 22 21 22 22 22 22 23 23 22 22 20 20 19 19 19 19 19 18 18 17 17 17 17 17 16 16 16 16 16 15 15 15 15 14 14 15 14 14 14 14 14 14 14 15 15 15
22 22 21 21 21 21 22 22 22 22 21 21 21 20 20 20 20 19 19 19 18 18 17 17 17 17 17 16 16 16 15 15 15 15 14 14 14 14 14 14 14 14 14 14 14 14 15 15 15
22 22 22 21 21 21 22 22 22 22 21 21 21 20 20 20 20 20 19 19 19 18 18 17 17 17 16 16 16 16 15 15 15 14 14 14 14 14 14 14 14 14 14 14 14 14 14 14 15
21 22 22 22 22 22 22 22 23 22 21 21 21 21 20 20 20 20 20 19 19 18 18 17 17 17 16 16 16 15 15 15 15 14 14 14 14 14 14 14 14 14 14 14 14 14 14 14 14
23 23 22 22 22 22 22 23 23 22 22 22 22 21 20 20 20 20 19 19 19 18 18 18 17 17 16 16 16 15 15 15 14 14 14 14 14 14 13 13 14 13 13 13 13 14 14 14 14
22 23 23 22 22 23 23 23 23 22 22 22 22 22 21 20 20 20 20 19 19 18 18 18 17 17 16 16 16 15 15 15 14 14 14 14 14 13 13 13 13 13 13 13 13 14 14 14 14
22 23 23 23 23 23 23 23 23 22 22 23 22 22 22 21 21 20 19 19 19 18 18 18 17 17 16 16 15 15 15 14 14 14 14 13 13 13 13 13 13 13 13 13 13 13 13 14 14
23 23 23 23 23 23 23 23 24 23 23 23 23 23 22 22 21 20 20 19 19 19 18 18 17 17 16 16 15 15 15 14 14 14 14 13 13 13 13 13 13 13 13 13 13 13 13 13 14
23 23 23 23 23 23 24 24 24 24 23 23 23 23 23 22 21 20 20 19 19 19 18 18 17 17 16 16 15 15 15 14 14 14 13 13 13 13 13 13 13 13 13 13 13 13 13 13 13
23 23 23 23 23 23 24 24 24 24 23 23 23 23 23 22 22 21 20 19 19 19 18 18 17 17 16 16 15 15 14 14 14 14 13 13 13 13 13 13 13 13 13 13 13 13 13 13 13
22 22 23 23 23 23 24 24 25 25 24 24 23 23 22 22 21 21 20 19 19 19 19 18 17 17 16 16 15 15 15 14 14 14 13 13 13 13 13 13 13 13 13 13 13 13 13 13 13
22 22 22 23 24 24 24 25 25 25 25 25 24 23 22 22 21 21 20 20 19 19 19 18 17 17 16 16 16 15 14 14 14 14 14 13 13 13 13 13 13 13 13 13 13 13 13 13 13
22 22 23 23 24 24 24 25 24 25 25 24 24 23 22 22 21 21 20 20 19 19 19 18 18 17 17 16 16 15 15 14 14 14 14 14 13 13 13 13 13 13 13 13 13 13 13 13 13
23 23 23 23 23 23 24 24 24 24 24 24 24 23 22 21 21 20 20 20 20 19 19 18 18 17 17 16 16 15 15 14 14 14 14 14 14 13 13 13 13 13 13 13 13 13 13 13 13
23 24 23 23 23 24 24 24 25 24 23 22 22 22 21 21 20 20 20 20 19 19 19 18 18 17 17 16 16 15 15 14 14 14 14 14 14 14 13 13 13 13 13 13 13 13 13 13 13
24 24 24 25 24 24 24 24 25 24 24 23 23 22 21 21 20 20 20 19 19 19 19 19 18 18 17 17 16 15 15 15 15 14 14 14 14 13 13 13 13 13 13 13 13 13 13 13 13
24 24 24 25 24 23 23 24 24 24 24 24 23 22 22 21 20 20 20 19 19 19 19 18 18 18 17 17 16 16 15 15 15 14 14 14 14 14 13 13 13 13 13 13 13 13 13 13 13
24 24 24 24 24 24 23 23 24 23 23 23 23 22 21 21 20 20 19 19 19 19 19 19 18 18 17 17 16 16 16 15 15 15 14 14 14 14 13 13 13 13 13 13 13 13 13 13 13
24 24 25 24 24 24 24 23 23 23 23 22 22 21 21 20 20 19 19 19 19 19 19 18 18 18 17 17 16 16 16 15 15 15 14 14 14 14 14 13 13 13 13 13 13 13 13 13 13
Wind_Speed
7 6 3 2 2 1 2 2 1 1 1 2 2 2 3 3 3 4 4 7 9 10 11 11 10 9 9 8 8 8 7 7 6 5 5 4 4 3 2 1 1 1 2 2 2 3 3 2 2
6 4 2 2 2 1 3 2 2 2 2 3 3 2 3 5 5 6 6 8 10 10 10 10 10 9 9 8 8 8 8 7 7 6 5 4 4 3 2 1 1 1 2 2 3 3 4 4 3
5 2 2 2 1 1 3 3 3 3 3 2 3 3 3 4 5 5 8 10 10 10 10 11 9 9 8 8 8 8 7 7 6 5 5 5 4 3 3 3 3 3 3 3 4 4 4 4 4
3 2 2 2 1 2 2 3 3 4 4 2 2 4 4 4 3 7 11 11 11 10 10 11 9 9 8 8 8 7 7 6 6 6 5 5 4 3 3 3 4 4 4 4 4 4 5 5 5
2 2 3 2 1 2 2 2 3 3 3 3 2 5 5 4 7 11 12 11 11 10 10 11 9 8 8 8 7 7 6 6 5 5 5 5 4 4 4 4 4 4 4 4 5 4 5 5 5
3 3 3 2 2 2 3 2 2 3 3 4 3 5 5 6 10 11 11 10 10 9 9 10 9 7 7 6 6 6 5 5 4 5 5 5 5 5 4 4 4 4 4 5 5 5 5 5 5
3 2 2 1 2 2 3 2 2 2 3 3 3 4 6 9 10 11 11 10 9 8 7 7 8 8 7 6 5 5 4 4 4 4 4 4 4 4 4 4 4 5 5 5 5 4 4 5 5
2 3 2 2 2 2 3 3 2 1 3 4 2 3 6 10 11 11 10 9 8 7 6 5 6 5 5 6 5 4 4 4 4 3 4 3 1 0 1 3 3 5 5 6 5 4 4 5 5
3 4 3 1 1 2 3 3 2 2 4 3 2 4 8 14 14 12 10 8 7 6 5 4 4 4 3 3 4 3 3 3 1 1 2 3 3 3 2 5 6 5 5 5 5 4 4 5 4
4 3 1 1 0 1 2 1 2 3 4 5 6 8 12 14 14 12 10 9 8 6 5 4 3 3 3 2 2 1 1 1 2 3 2 3 4 4 5 1 2 3 4 4 2 4 6 8 4
4 2 1 1 1 1 2 1 1 2 2 4 8 12 14 14 12 11 10 8 7 5 4 3 3 2 1 1 0 1 1 1 2 3 3 3 4 3 4 4 2 3 4 5 3 5 5 5 3
3 1 1 1 1 2 2 1 1 2 1 3 8 13 14 14 12 10 9 8 6 5 3 2 2 2 1 1 1 1 1 2 2 3 4 4 3 4 4 4 5 5 4 4 5 4 4 5 5
5 2 1 2 2 2 2 3 2 2 2 5 9 12 13 12 11 9 8 7 6 5 4 3 2 1 1 1 0 0 1 2 3 3 4 4 4 4 4 4 4 5 4 4 4 5 4 5 4
3 3 2 2 4 3 3 3 3 3 6 9 11 11 12 11 10 9 9 7 6 5 5 4 3 2 1 1 1 0 1 1 3 3 4 4 4 4 4 5 4 4 5 5 5 5 4 4 4
4 4 4 3 4 3 4 4 4 5 8 10 10 10 10 10 10 9 8 7 6 5 5 4 3 2 2 1 0 0 1 1 2 2 4 4 4 5 4 5 4 4 5 5 4 5 4 4 4
5 5 4 4 4 4 5 4 5 6 9 9 9 10 9 9 10 9 8 7 6 5 5 4 3 3 2 1 1 0 1 1 1 2 3 4 4 5 5 4 4 5 5 4 4 4 4 3 3
6 5 4 4 3 3 5 3 5 6 8 8 9 9 10 9 9 8 8 7 6 6 6 5 4 3 2 1 1 0 0 1 1 2 3 4 5 5 5 4 5 5 4 4 4 3 4 3 3
5 4 4 3 3 3 4 3 4 5 6 7 8 9 9 9 9 8 7 7 7 7 6 5 4 3 3 2 2 1 0 0 1 2 3 4 4 5 5 4 5 5 4 4 3 3 3 3 3
2 3 3 3 2 3 3 4 4 5 6 7 8 9 9 8 8 7 7 8 8 8 7 6 5 5 3 2 2 1 1 1 1 2 3 3 4 4 4 4 4 4 4 4 4 3 3 2 2
2 4 5 4 2 2 2 2 3 4 6 7 8 8 8 7 8 8 8 8 8 8 8 7 6 5 4 2 1 1 1 1 1 1 2 3 4 4 4 4 4 4 3 3 3 3 3 2 2
2 2 3 2 2 3 2 3 4 4 5 6 7 7 7 7 8 8 9 9 8 8 8 7 7 6 5 4 2 1 1 1 1 1 2 3 3 4 4 5 5 4 4 3 3 3 3 2 2
2 1 1 2 4 3 1 4 5 4 4 5 6 7 7 7 7 8 8 9 9 8 8 8 8 7 6 5 3 2 2 2 2 2 2 2 2 3 4 4 4 4 3 3 3 2 2 3 2
2 2 1 2 3 4 1 2 6 4 3 3 4 5 6 6 7 7 8 8 8 8 8 8 8 7 6 5 4 3 3 2 2 2 2 2 2 2 3 4 4 3 3 3 3 2 3 2 3
4 4 3 3 4 4 2 1 5 4 3 2 2 3 4 5 6 6 7 7 7 7 8 8 8 7 6 6 5 4 3 3 2 2 2 2 2 2 3 3 4 3 3 3 3 2 2 2 2
4 4 4 5 4 4 2 1 4 5 4 3 2 2 2 3 5 5 7 8 8 9 8 8 8 7 7 6 6 5 4 4 4 3 3 3 2 2 3 3 3 3 3 3 3 2 2 2 2
3 3 1 3 4 5 3 3 5 5 4 3 2 3 3 3 3 4 5 7 7 8 9 9 9 8 7 6 6 5 5 4 3 3 4 3 3 3 3 3 3 4 3 3 2 2 2 2 2
2 1 2 2 4 4 5 4 5 5 5 5 5 4 3 2 2 2 3 5 6 7 8 9 9 8 7 7 6 6 5 5 4 4 4 3 3 3 3 3 3 3 3 3 2 2 2 2 2
2 1 2 2 3 4 5 4 3 4 4 4 4 4 3 2 2 2 2 4 5 6 6 7 7 8 7 7 6 5 6 5 5 5 4 4 4 3 3 3 3 3 2 2 2 2 2 2 2
3 2 1 1 0 1 4 4 4 3 4 3 3 3 3 2 2 1 1 1 3 4 5 6 6 7 7 7 7 6 6 5 5 5 5 5 4 4 3 3 3 3 3 2 2 2 2 2 2
1 1 1 1 3 1 2 4 5 3 4 4 3 3 3 3 2 2 2 1 2 3 4 6 6 6 7 7 7 6 6 5 6 6 5 5 5 4 4 3 3 3 2 2 2 2 2 2 2
Wind_Direction
152 150 163 220 230 204 85 89 87 104 82 64 61 63 70 49 25 69 102 133 129 131 129 131 123 118 114 112 108 103 98 95 92 89 94 100 98 97 89 78 70 22 7 3 2 356 349 351 350
148 157 204 242 261 136 91 98 107 86 99 111 101 82 82 74 63 98 120 127 133 130 129 124 121 118 114 110 105 98 92 86 82 78 78 79 78 74 71 50 33 360 343 347 352 346 339 335 341
150 203 246 244 253 50 84 98 104 109 120 131 103 69 59 78 98 108 123 136 135 128 124 119 124 118 112 106 99 95 90 85 80 72 64 60 56 52 43 26 7 359 348 341 340 337 332 330 330
176 205 228 231 139 67 72 105 129 132 128 109 115 100 87 70 95 116 131 138 133 128 125 120 122 114 108 102 97 92 86 80 74 66 57 48 42 31 21 6 358 353 347 346 341 340 329 323 325
216 232 216 197 126 94 92 101 144 143 130 128 130 108 101 92 107 126 135 137 132 127 123 122 117 112 107 103 97 90 81 74 68 59 50 38 28 19 8 359 350 345 341 341 341 341 335 325 318
211 235 228 182 115 105 108 129 156 132 121 131 132 110 98 118 128 133 135 135 128 126 124 122 119 113 110 106 97 87 76 67 59 48 39 29 20 14 4 356 352 347 343 338 335 338 333 327 319
244 241 241 168 123 121 104 128 144 133 119 115 122 111 115 132 135 138 137 133 128 127 127 127 129 131 125 107 92 80 70 60 49 36 26 16 13 10 4 355 351 345 341 335 330 332 328 326 319
262 252 214 178 152 111 116 133 103 105 102 107 141 123 133 142 142 140 138 136 132 131 131 129 126 130 130 128 107 78 65 57 48 41 23 2 320 299 331 316 4 338 335 335 329 321 317 313 308
229 239 220 173 155 108 134 141 102 119 125 122 103 87 121 139 146 146 146 145 143 141 137 136 135 130 126 117 113 129 118 92 177 134 85 289 314 332 301 21 8 343 337 336 336 327 313 294 261
217 232 226 87 60 97 141 125 112 164 152 140 129 120 132 146 155 157 157 155 153 150 144 144 149 149 148 121 127 141 69 60 336 354 358 334 338 335 328 57 351 338 321 287 313 306 269 264 268
218 238 149 121 119 134 161 163 190 207 170 151 147 144 150 157 163 162 159 154 151 148 146 153 165 155 156 149 112 45 15 11 344 355 352 335 326 317 319 318 302 304 295 299 294 274 281 288 290
208 205 200 166 156 167 164 199 222 251 94 115 140 147 155 165 169 170 166 161 160 160 166 172 184 174 180 158 120 304 339 349 0 354 341 337 337 325 333 319 329 317 316 315 302 295 291 288 281
205 181 162 172 181 185 183 210 250 232 177 145 145 154 161 167 169 170 169 171 175 178 179 182 194 191 177 161 219 293 357 348 3 357 337 338 331 330 331 321 325 315 314 304 302 294 299 291 292
176 176 183 185 180 185 195 210 207 181 162 156 159 164 168 171 174 175 179 183 185 184 180 179 190 198 217 205 205 329 4 353 342 351 337 334 334 328 327 323 323 319 313 311 301 293 293 286 285
171 175 182 188 186 180 195 204 194 172 167 165 168 169 173 179 183 190 189 191 189 186 183 181 188 200 209 203 159 347 324 335 347 351 337 338 339 329 329 326 322 319 313 304 299 297 291 286 280
186 196 189 165 180 186 208 180 148 163 171 172 173 171 179 187 193 197 196 198 192 189 184 175 185 200 197 192 201 241 336 350 357 354 342 338 339 338 333 326 326 323 314 308 302 296 292 287 286
188 191 175 155 176 186 210 173 136 167 180 180 180 180 184 189 198 200 202 202 195 190 186 183 183 187 177 170 181 222 300 351 352 351 348 342 342 336 331 331 329 326 318 309 301 297 297 293 290
174 174 165 156 156 198 206 193 169 174 189 191 187 186 186 193 197 194 195 196 193 190 189 188 175 176 162 167 183 163 203 303 353 358 359 350 341 341 336 328 332 329 320 315 304 297 290 292 282
163 167 147 124 146 213 219 213 205 190 196 197 193 191 193 196 189 184 186 189 190 189 191 186 181 170 170 174 196 207 226 290 332 354 357 346 343 342 334 327 335 330 329 321 311 295 277 276 274
171 157 135 128 143 225 234 220 198 196 204 207 204 200 199 195 190 184 186 189 192 189 189 186 184 176 179 180 197 233 298 288 326 323 335 342 343 341 332 330 327 331 326 319 312 300 286 276 273
182 173 145 142 171 204 238 164 154 162 187 196 209 209 207 203 203 193 191 194 193 191 187 186 184 177 176 174 171 172 195 252 258 299 322 333 331 336 335 333 329 328 321 325 309 293 275 276 269
155 127 193 199 197 149 238 129 123 138 166 187 198 201 206 204 205 196 193 195 195 192 185 187 184 181 177 181 194 216 257 292 309 307 317 314 318 328 334 332 329 326 324 321 313 309 287 272 261
100 126 192 197 185 152 133 129 103 107 128 158 186 196 201 201 203 196 195 195 192 185 182 186 184 185 185 193 196 225 253 288 300 297 309 309 326 323 331 327 328 326 323 322 319 310 289 273 272
142 150 144 176 190 138 84 111 94 75 48 61 110 163 189 193 193 194 189 185 185 180 180 184 186 188 191 199 206 223 246 268 284 289 301 299 310 315 336 330 330 329 326 319 311 297 284 282 274
209 199 169 166 158 116 88 99 78 49 21 13 45 105 139 170 182 188 188 185 185 184 184 186 189 191 193 203 214 226 236 252 265 281 284 294 306 311 332 332 334 336 327 319 312 295 293 271 265
198 256 221 145 137 124 137 106 80 45 31 41 71 96 107 137 167 184 191 188 189 190 190 192 195 197 196 205 217 230 232 244 262 268 282 287 298 312 324 327 338 336 328 314 308 294 287 276 258
166 136 354 103 122 128 118 116 99 61 64 69 77 86 96 113 140 164 180 186 190 193 195 198 199 200 201 208 216 227 236 238 252 259 267 276 284 298 309 319 328 333 329 316 304 298 287 285 284
2 134 197 187 144 128 123 107 78 54 49 53 59 66 75 83 103 130 165 185 191 193 193 197 204 206 208 211 216 222 230 231 241 253 257 265 278 285 289 304 319 326 327 318 307 300 305 280 273
146 151 135 108 12 154 136 102 47 49 40 36 44 54 58 57 66 88 124 164 182 187 189 194 203 209 210 213 217 221 226 228 233 243 249 256 264 269 274 286 303 316 318 316 298 293 296 288 281
352 29 244 168 119 96 126 99 67 45 37 34 42 44 41 38 42 60 80 110 165 191 199 202 206 210 213 215 219 224 227 225 232 239 245 249 255 260 264 274 287 295 297 300 302 299 289 283 285
Height
1505 1504 1505 1507 1505 1503 1502 1502 1500 1502 1502 1504 1505 1504 1504 1506 1508 1515 1515 1514 1516 1518 1519 1520 1521 1523 1524 1525 1526 1526 1527 1528 1528 1528 1528 1529 1529 1529 1529 1529 1529 1529 1529 1529 1529 1529 1529 1528 1528
1505 1505 1507 1507 1502 1503 1504 1501 1502 1503 1504 1505 1506 1506 1505 1508 1511 1513 1514 1515 1517 1519 1520 1522 1522 1524 1525 1526 1526 1527 1528 1528 1528 1528 1528 1529 1529 1529 1529 1529 1529 1529 1529 1529 1529 1528 1528 1528 1528
1505 1506 1508 1504 1502 1502 1503 1501 1501 1503 1505 1505 1506 1507 1508 1511 1513 1514 1515 1516 1519 1520 1522 1522 1523 1525 1526 1526 1527 1527 1528 1528 1528 1529 1529 1529 1529 1529 1529 1529 1529 1529 1529 1528 1528 1528 1528 1528 1527
1507 1508 1507 1504 1502 1500 1499 1500 1502 1503 1505 1506 1506 1508 1510 1513 1514 1515 1516 1518 1520 1522 1523 1523 1524 1526 1527 1527 1528 1528 1528 1528 1528 1528 1529 1528 1528 1528 1528 1528 1528 1528 1528 1527 1527 1527 1527 1527 1527
1507 1507 1504 1502 1500 1499 1499 1501 1502 1502 1503 1506 1506 1508 1511 1514 1514 1516 1517 1520 1522 1523 1524 1525 1525 1527 1527 1528 1528 1529 1529 1529 1529 1529 1528 1528 1528 1528 1528 1527 1527 1527 1527 1526 1526 1526 1526 1526 1526
1508 1505 1503 1502 1500 1499 1500 1502 1503 1502 1504 1506 1507 1508 1513 1515 1516 1518 1519 1521 1523 1524 1526 1526 1526 1527 1528 1528 1529 1529 1529 1529 1529 1529 1528 1528 1528 1527 1527 1527 1526 1526 1526 1525 1525 1525 1525 1524 1524
1507 1502 1501 1500 1501 1500 1501 1503 1503 1503 1504 1507 1508 1509 1513 1516 1518 1519 1521 1523 1524 1525 1527 1528 1528 1529 1529 1529 1529 1529 1529 1529 1529 1529 1528 1528 1527 1527 1526 1526 1525 1525 1525 1524 1524 1524 1523 1523 1523
1506 1503 1500 1499 1501 1501 1502 1503 1504 1505 1506 1509 1509 1509 1513 1517 1518 1520 1522 1524 1526 1527 1528 1529 1529 1530 1531 1530 1530 1530 1530 1529 1529 1529 1528 1527 1527 1526 1526 1525 1524 1524 1523 1523 1522 1522 1522 1522 1521
1506 1504 1501 1500 1501 1501 1503 1503 1505 1506 1507 1509 1510 1511 1514 1516 1519 1521 1524 1526 1527 1528 1529 1530 1530 1531 1531 1531 1531 1530 1530 1529 1529 1529 1528 1527 1528 1528 1527 1525 1523 1522 1522 1521 1521 1520 1520 1520 1520
1505 1502 1500 1500 1500 1501 1503 1504 1506 1506 1506 1508 1511 1513 1515 1517 1520 1522 1524 1526 1528 1529 1530 1530 1531 1531 1531 1531 1531 1531 1531 1530 1530 1529 1528 1528 1527 1526 1525 1523 1522 1521 1520 1520 1519 1519 1519 1519 1520
1502 1500 1500 1502 1503 1503 1504 1505 1506 1506 1506 1507 1510 1513 1515 1518 1520 1523 1525 1527 1528 1529 1530 1531 1531 1531 1531 1532 1532 1531 1531 1530 1529 1529 1528 1527 1526 1526 1525 1524 1522 1521 1520 1520 1518 1518 1519 1519 1519
1501 1501 1502 1503 1504 1504 1504 1505 1506 1506 1507 1508 1510 1512 1515 1518 1521 1523 1525 1527 1528 1529 1530 1531 1531 1531 1532 1532 1532 1531 1531 1530 1530 1528 1527 1527 1526 1525 1524 1523 1521 1520 1519 1518 1517 1517 1517 1517 1517
1500 1501 1503 1503 1504 1505 1505 1506 1506 1507 1508 1509 1511 1513 1516 1518 1521 1523 1525 1527 1528 1529 1530 1530 1530 1531 1531 1531 1531 1531 1530 1530 1529 1527 1527 1526 1525 1524 1523 1522 1520 1519 1518 1517 1516 1516 1516 1515 1515
1500 1501 1502 1503 1504 1505 1505 1505 1506 1507 1508 1509 1511 1513 1516 1518 1521 1523 1525 1527 1528 1529 1530 1530 1530 1530 1530 1531 1531 1530 1530 1528 1528 1527 1526 1525 1524 1523 1522 1521 1519 1518 1517 1516 1515 1515 1514 1514 1514
1501 1501 1501 1502 1503 1504 1505 1504 1504 1506 1507 1509 1511 1513 1516 1518 1520 1522 1524 1526 1528 1529 1529 1530 1530 1530 1530 1530 1530 1529 1529 1528 1527 1526 1525 1524 1523 1522 1521 1519 1518 1517 1516 1515 1514 1514 1513 1513 1512
1499 1499 1502 1501 1501 1503 1505 1505 1503 1505 1506 1508 1510 1512 1515 1517 1519 1522 1524 1525 1527 1528 1529 1529 1529 1529 1529 1529 1528 1529 1528 1527 1526 1525 1524 1524 1522 1521 1519 1518 1517 1515 1514 1513 1513 1512 1512 1512 1511
1498 1499 1500 1501 1500 1501 1501 1502 1502 1505 1505 1507 1509 1511 1514 1516 1519 1520 1522 1524 1525 1526 1527 1528 1528 1528 1528 1528 1527 1527 1527 1526 1526 1525 1524 1523 1521 1520 1519 1517 1515 1515 1513 1512 1512 1512 1511 1511 1510
1499 1497 1498 1499 1499 1499 1500 1500 1500 1503 1505 1506 1508 1510 1512 1515 1517 1519 1520 1522 1523 1525 1526 1527 1527 1527 1527 1527 1527 1527 1526 1526 1525 1524 1523 1521 1520 1519 1517 1516 1515 1513 1512 1511 1511 1510 1509 1509 1509
1494 1496 1498 1498 1498 1499 1498 1498 1498 1500 1503 1504 1506 1508 1510 1513 1516 1517 1519 1520 1522 1523 1525 1526 1526 1526 1526 1526 1526 1526 1526 1526 1525 1524 1522 1521 1519 1518 1516 1515 1514 1512 1511 1510 1510 1509 1509 1508 1508
1496 1497 1498 1498 1498 1498 1497 1496 1495 1498 1500 1502 1503 1505 1508 1511 1514 1516 1517 1519 1520 1522 1523 1524 1524 1525 1525 1525 1526 1525 1525 1525 1524 1523 1521 1520 1519 1517 1516 1515 1513 1512 1510 1509 1508 1508 1508 1508 1508
1497 1497 1498 1499 1499 1497 1496 1496 1494 1496 1499 1501 1503 1504 1506 1509 1511 1514 1515 1517 1518 1520 1521 1522 1523 1524 1524 1524 1525 1524 1524 1524 1524 1523 1521 1520 1518 1517 1515 1514 1513 1511 1510 1509 1508 1507 1507 1507 1507
1499 1497 1497 1498 1498 1499 1496 1502 1494 1493 1495 1498 1500 1503 1505 1507 1510 1511 1513 1515 1516 1518 1519 1521 1522 1523 1523 1524 1524 1524 1524 1524 1524 1522 1521 1519 1518 1516 1514 1513 1512 1510 1509 1508 1507 1507 1506 1506 1507
1498 1498 1497 1496 1496 1496 1495 1496 1495 1492 1495 1496 1498 1501 1503 1506 1508 1510 1511 1513 1515 1516 1518 1519 1521 1522 1522 1523 1523 1523 1524 1524 1523 1522 1520 1519 1518 1516 1514 1513 1511 1510 1509 1508 1507 1506 1506 1506 1506
1498 1498 1497 1495 1493 1503 1500 1498 1502 1494 1495 1495 1497 1500 1502 1504 1506 1508 1510 1511 1513 1515 1516 1518 1519 1520 1521 1522 1522 1523 1523 1522 1522 1521 1520 1519 1518 1516 1514 1513 1511 1510 1509 1507 1506 1505 1505 1505 1505
1497 1497 1504 1505 1505 1506 1500 1500 1502 1496 1497 1498 1498 1500 1501 1503 1505 1506 1508 1509 1511 1513 1514 1516 1518 1519 1520 1521 1521 1522 1521 1521 1521 1520 1519 1518 1518 1516 1514 1513 1511 1510 1508 1507 1506 1505 1504 1504 1504
1494 1494 1502 1510 1509 1504 1501 1501 1499 1497 1499 1499 1500 1501 1502 1503 1504 1505 1507 1508 1509 1511 1513 1514 1516 1517 1518 1519 1520 1520 1521 1520 1520 1519 1519 1518 1517 1516 1514 1512 1511 1509 1508 1506 1505 1505 1504 1504 1504
1494 1493 1492 1493 1498 1502 1501 1499 1496 1497 1498 1499 1500 1501 1502 1503 1504 1505 1506 1507 1508 1510 1511 1513 1514 1515 1516 1517 1518 1519 1519 1519 1519 1518 1518 1517 1516 1515 1513 1512 1511 1509 1508 1506 1505 1505 1504 1503 1503
1493 1492 1493 1495 1506 1511 1509 1505 1503 1500 1499 1499 1500 1501 1503 1504 1504 1505 1505 1506 1507 1508 1510 1511 1512 1514 1515 1516 1516 1517 1517 1517 1517 1517 1516 1516 1515 1514 1513 1512 1511 1509 1508 1506 1505 1505 1503 1503 1502
1495 1495 1494 1495 1496 1505 1513 1511 1501 1501 1501 1501 1501 1503 1504 1504 1504 1504 1505 1505 1506 1507 1508 1509 1511 1512 1513 1513 1514 1515 1515 1515 1515 1515 1515 1514 1514 1513 1512 1511 1510 1509 1508 1506 1505 1505 1503 1502 1502
1492 1492 1492 1497 1501 1499 1503 1511 1502 1502 1503 1503 1503 1504 1504 1504 1504 1504 1504 1504 1505 1506 1507 1508 1509 1510 1510 1511 1512 1513 1513 1513 1513 1513 1513 1512 1512 1512 1511 1510 1509 1508 1507 1506 1505 1504 1503 1502 1501